Xin Dan Dong — BPBY — position and weather

sailwx.info

Track history (hours):
 
Tides and Currents Weather Stations Pressure Air Temp Water Temp Dewpoint Dewpoint Depression Visibility Wind Speed Wind Dir Waves Ship Positions

Xin Dan Dong

Last reported at 2014-Oct-31 11:08 UTC. Time now 2014-Oct-31 11:57 UTC.
Position N 25°04' E 119°51'.

Length 263 m; draft 12.8 m.

Type: Cargo ship. MMSI: 413153000.

Date/timePositionNaut miles runAvg speedWind from/ knotsBaromVisibWave heightAir tempDewpointWater temp
2014-Oct-31 11:08N 25°04' E 119°51'28012.8
2014-Oct-30 13:14N 28°56' E 122°45'1212.5
2014-Oct-30 12:16N 29°08' E 122°49'38212.0
2014-Oct-29 04:28N 35°29' E 123°15'1313.3
2014-Oct-29 03:30N 35°42' E 123°14'1313.4
2014-Oct-29 02:33N 35°55' E 123°12'1515.2
2014-Oct-29 01:32N 36°10' E 123°14'1919.0
2014-Oct-29 00:33N 36°29' E 123°14'1413.8
2014-Oct-28 23:33N 36°43' E 123°14'1412.9
2014-Oct-28 22:28N 36°57' E 123°14'1212.7
2014-Oct-28 21:30N 37°09' E 123°13'1313.3
2014-Oct-28 20:33N 37°19' E 123°04'1414.0
2014-Oct-28 19:32N 37°31' E 122°55'1414.1
2014-Oct-28 18:33N 37°42' E 122°44'1413.6
2014-Oct-28 17:31N 37°53' E 122°32'1212.0
2014-Oct-28 16:32N 37°57' E 122°18'4212.5
2014-Oct-28 13:10N 38°17' E 121°31'913.5
2014-Oct-28 12:32N 38°21' E 121°21'6210.3
2014-Oct-28 06:31N 38°36' E 120°05'  
2014-Oct-24 09:33N 38°53' E 118°09'1111.3
2014-Oct-24 08:33N 38°57' E 117°55'7 7.3
2014-Oct-24 07:33N 38°60' E 117°47'0 0.1
2014-Oct-24 06:27N 38°60' E 117°47'0 0.0
2014-Oct-24 05:33N 38°60' E 117°47'0 0.0
2014-Oct-24 04:33N 38°60' E 117°47'0 0.0
2014-Oct-24 03:33N 38°60' E 117°47'0 0.0
2014-Oct-24 02:33N 38°60' E 117°47'0 0.0
2014-Oct-24 01:33N 38°60' E 117°47'0 0.0
2014-Oct-24 00:27N 38°60' E 117°47'0 0.0
2014-Oct-23 23:27N 38°60' E 117°47'0 0.0
2014-Oct-23 22:21N 38°60' E 117°47'0 0.0
2014-Oct-23 21:33N 38°60' E 117°47'0 0.0
2014-Oct-23 20:21N 38°60' E 117°47'0 0.0
2014-Oct-23 19:27N 38°60' E 117°47'0 0.0
2014-Oct-23 18:27N 38°60' E 117°47'0 0.0
2014-Oct-23 17:25N 38°60' E 117°47'0 0.0
2014-Oct-23 16:31N 38°60' E 117°47'0 0.0
2014-Oct-23 15:29N 38°60' E 117°47'6 6.9
2014-Oct-23 14:33N 38°57' E 117°54'13 6.4
2014-Oct-23 12:27N 38°55' E 118°11'145 6.8
2014-Oct-22 15:09N 38°28' E 121°13'913.8
2014-Oct-22 14:31N 38°24' E 121°24'4413.2
2014-Oct-22 11:12N 38°02' E 122°11'813.1
2014-Oct-22 10:33N 37°57' E 122°20'1713.7
2014-Oct-22 09:17N 37°49' E 122°39'1314.1
2014-Oct-22 08:23N 37°38' E 122°48'1613.9
2014-Oct-22 07:15N 37°24' E 122°56'1113.0
2014-Oct-22 06:24N 37°15' E 123°05'2111.3
2014-Oct-22 04:31N 36°55' E 123°12'  
Track history (hours):
 
Tides and Currents Weather Stations Pressure Air Temp Water Temp Dewpoint Dewpoint Depression Visibility Wind Speed Wind Dir Waves Ship Positions

Xin Dan Dong

Last reported at 2014-Oct-31 11:08 UTC. Time now 2014-Oct-31 11:57 UTC.
Position N 25°04' E 119°51'.

Length 263 m; draft 12.8 m.

Type: Cargo ship. MMSI: 413153000.

Date/timePositionNaut miles runAvg speedWind from/ knotsBaromVisibWave heightAir tempDewpointWater temp
2014-Oct-31 11:08N 25°04' E 119°51'28012.8
2014-Oct-30 13:14N 28°56' E 122°45'1212.5
2014-Oct-30 12:16N 29°08' E 122°49'38212.0
2014-Oct-29 04:28N 35°29' E 123°15'1313.3
2014-Oct-29 03:30N 35°42' E 123°14'1313.4
2014-Oct-29 02:33N 35°55' E 123°12'1515.2
2014-Oct-29 01:32N 36°10' E 123°14'1919.0
2014-Oct-29 00:33N 36°29' E 123°14'1413.8
2014-Oct-28 23:33N 36°43' E 123°14'1412.9
2014-Oct-28 22:28N 36°57' E 123°14'1212.7
2014-Oct-28 21:30N 37°09' E 123°13'1313.3
2014-Oct-28 20:33N 37°19' E 123°04'1414.0
2014-Oct-28 19:32N 37°31' E 122°55'1414.1
2014-Oct-28 18:33N 37°42' E 122°44'1413.6
2014-Oct-28 17:31N 37°53' E 122°32'1212.0
2014-Oct-28 16:32N 37°57' E 122°18'4212.5
2014-Oct-28 13:10N 38°17' E 121°31'913.5
2014-Oct-28 12:32N 38°21' E 121°21'6210.3
2014-Oct-28 06:31N 38°36' E 120°05'  
2014-Oct-24 09:33N 38°53' E 118°09'1111.3
2014-Oct-24 08:33N 38°57' E 117°55'7 7.3
2014-Oct-24 07:33N 38°60' E 117°47'0 0.1
2014-Oct-24 06:27N 38°60' E 117°47'0 0.0
2014-Oct-24 05:33N 38°60' E 117°47'0 0.0
2014-Oct-24 04:33N 38°60' E 117°47'0 0.0
2014-Oct-24 03:33N 38°60' E 117°47'0 0.0
2014-Oct-24 02:33N 38°60' E 117°47'0 0.0
2014-Oct-24 01:33N 38°60' E 117°47'0 0.0
2014-Oct-24 00:27N 38°60' E 117°47'0 0.0
2014-Oct-23 23:27N 38°60' E 117°47'0 0.0
2014-Oct-23 22:21N 38°60' E 117°47'0 0.0
2014-Oct-23 21:33N 38°60' E 117°47'0 0.0
2014-Oct-23 20:21N 38°60' E 117°47'0 0.0
2014-Oct-23 19:27N 38°60' E 117°47'0 0.0
2014-Oct-23 18:27N 38°60' E 117°47'0 0.0
2014-Oct-23 17:25N 38°60' E 117°47'0 0.0
2014-Oct-23 16:31N 38°60' E 117°47'0 0.0
2014-Oct-23 15:29N 38°60' E 117°47'6 6.9
2014-Oct-23 14:33N 38°57' E 117°54'13 6.4
2014-Oct-23 12:27N 38°55' E 118°11'145 6.8
2014-Oct-22 15:09N 38°28' E 121°13'913.8
2014-Oct-22 14:31N 38°24' E 121°24'4413.2
2014-Oct-22 11:12N 38°02' E 122°11'813.1
2014-Oct-22 10:33N 37°57' E 122°20'1713.7
2014-Oct-22 09:17N 37°49' E 122°39'1314.1
2014-Oct-22 08:23N 37°38' E 122°48'1613.9
2014-Oct-22 07:15N 37°24' E 122°56'1113.0
2014-Oct-22 06:24N 37°15' E 123°05'2111.3
2014-Oct-22 04:31N 36°55' E 123°12'  

Dump ship's entire track history